Data start date =,4/1/1933
Data end date/time =,5/4/2024 12:00
Vertical Datum =,MSL1912
""
Date/Time,CLAI4
,Elev
UTC,ft
,Ave
4/2/1933 12:00,612.70
4/3/1933 12:00,613.10
4/4/1933 12:00,613.20
4/5/1933 12:00,613.20
4/6/1933 12:00,613.00
4/7/1933 12:00,612.80
4/8/1933 12:00,612.70
4/9/1933 12:00,612.80
4/10/1933 12:00,613.10
4/11/1933 12:00,612.90
4/12/1933 12:00,612.70
4/13/1933 12:00,612.90
4/14/1933 12:00,613.00
4/15/1933 12:00,612.80
4/16/1933 12:00,612.60
4/17/1933 12:00,612.40
4/18/1933 12:00,612.40
4/19/1933 12:00,612.30
4/20/1933 12:00,612.20
4/21/1933 12:00,611.60
4/22/1933 12:00,611.10
4/23/1933 12:00,610.50
4/24/1933 12:00,610.20
4/25/1933 12:00,610.10
4/26/1933 12:00,609.90
4/27/1933 12:00,609.60
4/28/1933 12:00,609.50
4/29/1933 12:00,609.30
4/30/1933 12:00,609.10
5/1/1933 12:00,609.20
5/2/1933 12:00,609.20
5/3/1933 12:00,609.20
5/4/1933 12:00,609.10
5/5/1933 12:00,609.00
5/6/1933 12:00,609.00
5/7/1933 12:00,609.10
5/8/1933 12:00,609.70
5/9/1933 12:00,610.10
5/10/1933 12:00,610.30
5/11/1933 12:00,610.30
5/12/1933 12:00,610.10
5/13/1933 12:00,609.90
5/14/1933 12:00,609.90
5/15/1933 12:00,609.90
5/16/1933 12:00,610.00
5/17/1933 12:00,609.90
5/18/1933 12:00,609.90
5/19/1933 12:00,610.10
5/20/1933 12:00,610.70
5/21/1933 12:00,610.60
5/22/1933 12:00,610.70
5/23/1933 12:00,610.70
5/24/1933 12:00,610.60
5/25/1933 12:00,610.40
5/26/1933 12:00,610.10
5/27/1933 12:00,609.70
5/28/1933 12:00,609.40
5/29/1933 12:00,609.30
5/30/1933 12:00,609.30
5/31/1933 12:00,609.20
6/1/1933 12:00,609.10
6/2/1933 12:00,608.90
6/3/1933 12:00,609.00
6/4/1933 12:00,608.90
6/5/1933 12:00,608.90
6/6/1933 12:00,608.80
6/7/1933 12:00,608.80
6/8/1933 12:00,608.80
6/9/1933 12:00,608.80
6/10/1933 12:00,608.80
6/11/1933 12:00,608.80
6/12/1933 12:00,608.80
6/13/1933 12:00,608.70
6/14/1933 12:00,608.60
6/15/1933 12:00,608.60
6/16/1933 12:00,608.50
6/17/1933 12:00,608.30
6/18/1933 12:00,608.20
6/19/1933 12:00,608.00
6/20/1933 12:00,607.70
6/21/1933 12:00,607.50
6/22/1933 12:00,607.40
6/23/1933 12:00,607.30
6/24/1933 12:00,606.90
6/25/1933 12:00,606.60
6/26/1933 12:00,606.20
6/27/1933 12:00,605.90
6/28/1933 12:00,605.60
6/29/1933 12:00,605.50
6/30/1933 12:00,605.50
7/1/1933 12:00,605.50
7/2/1933 12:00,606.50
7/3/1933 12:00,608.10
7/4/1933 12:00,608.40
7/5/1933 12:00,607.90
7/6/1933 12:00,607.10
7/7/1933 12:00,606.40
7/8/1933 12:00,605.70
7/9/1933 12:00,605.20
7/10/1933 12:00,604.80
7/11/1933 12:00,604.60
7/12/1933 12:00,604.50
7/13/1933 12:00,604.30
7/14/1933 12:00,604.10
7/15/1933 12:00,604.10
7/16/1933 12:00,604.10
7/17/1933 12:00,604.10
7/18/1933 12:00,603.90
7/19/1933 12:00,603.80
7/20/1933 12:00,603.80
7/21/1933 12:00,603.60
7/22/1933 12:00,603.60
7/23/1933 12:00,604.70
7/24/1933 12:00,605.40
7/25/1933 12:00,605.40
7/26/1933 12:00,605.00
7/27/1933 12:00,604.70
7/28/1933 12:00,604.60
7/29/1933 12:00,604.30
7/30/1933 12:00,603.90
7/31/1933 12:00,603.60
8/1/1933 12:00,602.69
8/2/1933 12:00,602.60
8/3/1933 12:00,602.67
8/4/1933 12:00,602.67
8/5/1933 12:00,602.66
8/6/1933 12:00,602.65
8/7/1933 12:00,602.64
8/8/1933 12:00,603.00
8/9/1933 12:00,602.92
8/10/1933 12:00,602.63
8/11/1933 12:00,602.62
8/12/1933 12:00,602.62
8/13/1933 12:00,602.60
8/14/1933 12:00,602.50
8/15/1933 12:00,602.42
8/16/1933 12:00,602.42
8/17/1933 12:00,602.38
8/18/1933 12:00,602.36
8/19/1933 12:00,602.28
8/20/1933 12:00,602.30
8/21/1933 12:00,602.32
8/22/1933 12:00,602.24
8/23/1933 12:00,602.10
8/24/1933 12:00,602.08
8/25/1933 12:00,602.13
8/26/1933 12:00,602.12
8/27/1933 12:00,602.00
8/28/1933 12:00,601.90
8/29/1933 12:00,601.58
8/30/1933 12:00,601.54
8/31/1933 12:00,601.54
9/1/1933 12:00,602.69
9/2/1933 12:00,602.68
9/3/1933 12:00,602.68
9/4/1933 12:00,602.67
9/5/1933 12:00,602.66
9/6/1933 12:00,602.65
9/7/1933 12:00,602.65
9/8/1933 12:00,602.64
9/9/1933 12:00,602.72
9/10/1933 12:00,602.80
9/11/1933 12:00,602.63
9/12/1933 12:00,602.42
9/13/1933 12:00,602.58
9/14/1933 12:00,603.10
9/15/1933 12:00,603.10
9/16/1933 12:00,603.00
9/17/1933 12:00,602.80
9/18/1933 12:00,602.70
9/19/1933 12:00,602.70
9/20/1933 12:00,602.52
9/21/1933 12:00,602.52
9/22/1933 12:00,602.50
9/23/1933 12:00,602.44
9/24/1933 12:00,602.38
9/25/1933 12:00,602.34
9/26/1933 12:00,602.34
9/27/1933 12:00,602.40
9/28/1933 12:00,602.48
9/29/1933 12:00,602.46
9/30/1933 12:00,602.40
10/1/1933 12:00,602.32
10/2/1933 12:00,602.28
10/3/1933 12:00,602.24
10/4/1933 12:00,602.20
10/5/1933 12:00,602.14
10/6/1933 12:00,602.08
10/7/1933 12:00,602.08
10/8/1933 12:00,602.10
10/9/1933 12:00,602.16
10/10/1933 12:00,602.22
10/11/1933 12:00,602.28
10/12/1933 12:00,602.22
10/13/1933 12:00,602.16
10/14/1933 12:00,602.14
10/15/1933 12:00,602.14
10/16/1933 12:00,602.18
10/17/1933 12:00,602.26
10/18/1933 12:00,602.42
10/19/1933 12:00,602.48
10/20/1933 12:00,602.58
10/21/1933 12:00,602.58
10/22/1933 12:00,602.54
10/23/1933 12:00,602.48
10/24/1933 12:00,602.40
10/25/1933 12:00,602.36
10/26/1933 12:00,602.38
10/27/1933 12:00,602.48
10/28/1933 12:00,602.48
10/29/1933 12:00,602.48
10/30/1933 12:00,602.52
10/31/1933 12:00,602.50
11/1/1933 12:00,602.48
11/2/1933 12:00,602.48
11/3/1933 12:00,602.48
11/4/1933 12:00,602.46
11/5/1933 12:00,602.42
11/6/1933 12:00,602.49
11/7/1933 12:00,602.50
11/8/1933 12:00,602.70
11/9/1933 12:00,602.70
11/10/1933 12:00,602.70
11/11/1933 12:00,602.70
11/12/1933 12:00,602.70
11/13/1933 12:00,602.70
11/14/1933 12:00,602.70
11/15/1933 12:00,602.48
11/16/1933 12:00,601.80
11/17/1933 12:00,601.46
11/18/1933 12:00,601.12
11/19/1933 12:00,601.40
11/20/1933 12:00,601.84
11/21/1933 12:00,602.30
11/22/1933 12:00,602.20
11/23/1933 12:00,601.70
11/24/1933 12:00,602.00
11/25/1933 12:00,602.50
11/26/1933 12:00,602.60
11/27/1933 12:00,602.50
11/28/1933 12:00,602.56
11/29/1933 12:00,602.70
11/30/1933 12:00,602.70
12/1/1933 12:00,602.70
12/2/1933 12:00,602.76
12/3/1933 12:00,602.80
12/4/1933 12:00,602.90
12/5/1933 12:00,602.94
12/6/1933 12:00,602.94
12/7/1933 12:00,602.86
12/8/1933 12:00,602.90
12/9/1933 12:00,602.80
12/10/1933 12:00,602.70
12/11/1933 12:00,603.10
12/12/1933 12:00,603.30
12/13/1933 12:00,601.00
12/14/1933 12:00,600.98
12/15/1933 12:00,601.08
12/16/1933 12:00,601.14
12/17/1933 12:00,601.50
12/18/1933 12:00,601.62
12/19/1933 12:00,602.00
12/20/1933 12:00,602.46
12/21/1933 12:00,602.72
12/22/1933 12:00,602.62
12/23/1933 12:00,603.00
12/24/1933 12:00,603.10
12/25/1933 12:00,603.02
12/26/1933 12:00,603.54
12/27/1933 12:00,604.02
12/28/1933 12:00,604.08
12/29/1933 12:00,604.10
12/30/1933 12:00,604.10
12/31/1933 12:00,604.00
1/1/1934 12:00,603.90
1/2/1934 12:00,603.84
1/3/1934 12:00,603.86
1/4/1934 12:00,603.86
1/5/1934 12:00,604.02
1/6/1934 12:00,604.20
1/7/1934 12:00,604.50
1/8/1934 12:00,604.74
1/9/1934 12:00,604.92
1/10/1934 12:00,605.06
1/11/1934 12:00,605.10
1/12/1934 12:00,605.02
1/13/1934 12:00,605.00
1/14/1934 12:00,604.94
1/15/1934 12:00,605.00
1/16/1934 12:00,605.04
1/17/1934 12:00,604.98
1/18/1934 12:00,604.70
1/19/1934 12:00,604.50
1/20/1934 12:00,604.24
1/21/1934 12:00,604.14
1/22/1934 12:00,604.40
1/23/1934 12:00,605.68
1/24/1934 12:00,606.08
1/25/1934 12:00,606.26
1/26/1934 12:00,606.14
1/27/1934 12:00,606.06
1/28/1934 12:00,605.82
1/29/1934 12:00,605.82
1/30/1934 12:00,605.94
1/31/1934 12:00,605.64
2/1/1934 12:00,605.32
2/2/1934 12:00,605.14
2/3/1934 12:00,605.00
2/4/1934 12:00,605.04
2/5/1934 12:00,605.04
2/6/1934 12:00,605.00
2/7/1934 12:00,605.10
2/8/1934 12:00,605.10
2/9/1934 12:00,605.20
2/10/1934 12:00,605.20
2/11/1934 12:00,605.12
2/12/1934 12:00,604.92
2/13/1934 12:00,604.68
2/14/1934 12:00,604.64
2/15/1934 12:00,604.72
2/16/1934 12:00,604.84
2/17/1934 12:00,604.86
2/18/1934 12:00,604.92
2/19/1934 12:00,604.86
2/20/1934 12:00,604.90
2/21/1934 12:00,604.80
2/22/1934 12:00,604.62
2/23/1934 12:00,604.50
2/24/1934 12:00,604.40
2/25/1934 12:00,604.16
2/26/1934 12:00,603.90
2/27/1934 12:00,603.70
2/28/1934 12:00,603.74
3/1/1934 12:00,603.92
3/2/1934 12:00,604.02
3/3/1934 12:00,604.12
3/4/1934 12:00,604.20
3/5/1934 12:00,604.30
3/6/1934 12:00,604.30
3/7/1934 12:00,604.40
3/8/1934 12:00,604.70
3/9/1934 12:00,604.90
3/10/1934 12:00,604.90
3/11/1934 12:00,604.60
3/12/1934 12:00,604.50
3/13/1934 12:00,604.60
3/14/1934 12:00,604.60
3/15/1934 12:00,604.90
3/16/1934 12:00,605.10
3/17/1934 12:00,604.70
3/18/1934 12:00,604.30
3/19/1934 12:00,604.10
3/20/1934 12:00,604.10
3/21/1934 12:00,604.10
3/22/1934 12:00,604.00
3/23/1934 12:00,603.94
3/24/1934 12:00,603.80
3/25/1934 12:00,603.72
3/26/1934 12:00,603.80
3/27/1934 12:00,603.68
3/28/1934 12:00,603.50
3/29/1934 12:00,603.60
3/30/1934 12:00,603.64
3/31/1934 12:00,603.68
4/1/1934 12:00,603.60
4/2/1934 12:00,604.20
4/3/1934 12:00,604.90
4/4/1934 12:00,606.50
4/5/1934 12:00,607.90
4/6/1934 12:00,608.90
4/7/1934 12:00,609.50
4/8/1934 12:00,609.92
4/9/1934 12:00,610.30
4/10/1934 12:00,610.80
4/11/1934 12:00,611.64
4/12/1934 12:00,612.40
4/13/1934 12:00,613.14
4/14/1934 12:00,613.90
4/15/1934 12:00,614.00
4/16/1934 12:00,613.84
4/17/1934 12:00,613.46
4/18/1934 12:00,612.82
4/19/1934 12:00,612.30
4/20/1934 12:00,611.80
4/21/1934 12:00,611.30
4/22/1934 12:00,610.80
4/23/1934 12:00,610.30
4/24/1934 12:00,609.90
4/25/1934 12:00,609.60
4/26/1934 12:00,609.20
4/27/1934 12:00,608.84
4/28/1934 12:00,608.60
4/29/1934 12:00,608.30
4/30/1934 12:00,608.00
5/1/1934 12:00,607.80
5/2/1934 12:00,607.66
5/3/1934 12:00,607.10
5/4/1934 12:00,606.70
5/5/1934 12:00,606.36
5/6/1934 12:00,606.26
5/7/1934 12:00,606.40
5/8/1934 12:00,606.40
5/9/1934 12:00,606.40
5/10/1934 12:00,606.00
5/11/1934 12:00,605.58
5/12/1934 12:00,605.20
5/13/1934 12:00,605.20
5/14/1934 12:00,605.20
5/15/1934 12:00,605.42
5/16/1934 12:00,605.60
5/17/1934 12:00,605.30
5/18/1934 12:00,605.16
5/19/1934 12:00,604.84
5/20/1934 12:00,604.58
5/21/1934 12:00,604.46
5/22/1934 12:00,604.50
5/23/1934 12:00,604.38
5/24/1934 12:00,604.20
5/25/1934 12:00,604.06
5/26/1934 12:00,603.90
5/27/1934 12:00,603.84
5/28/1934 12:00,603.78
5/29/1934 12:00,604.10
5/30/1934 12:00,604.52
5/31/1934 12:00,604.24
6/1/1934 12:00,603.80
6/2/1934 12:00,603.48
6/3/1934 12:00,603.28
6/4/1934 12:00,603.26
6/5/1934 12:00,603.18
6/6/1934 12:00,603.18
6/7/1934 12:00,603.08
6/8/1934 12:00,603.00
6/9/1934 12:00,603.02
6/10/1934 12:00,603.00
6/11/1934 12:00,603.00
6/12/1934 12:00,603.00
6/13/1934 12:00,603.08
6/14/1934 12:00,603.06
6/15/1934 12:00,603.00
6/16/1934 12:00,602.90
6/17/1934 12:00,602.90
6/18/1934 12:00,603.00
6/19/1934 12:00,602.90
6/20/1934 12:00,602.90
6/21/1934 12:00,603.02
6/22/1934 12:00,602.96
6/23/1934 12:00,602.78
6/24/1934 12:00,602.88
6/25/1934 12:00,602.80
6/26/1934 12:00,602.82
6/27/1934 12:00,602.80
6/28/1934 12:00,602.90
6/29/1934 12:00,603.04
6/30/1934 12:00,603.28
7/1/1934 12:00,603.84
7/2/1934 12:00,604.56
7/3/1934 12:00,604.78
7/4/1934 12:00,604.46
7/5/1934 12:00,604.10
7/6/1934 12:00,604.00
7/7/1934 12:00,603.80
7/8/1934 12:00,604.30
7/9/1934 12:00,604.40
7/10/1934 12:00,604.60
7/11/1934 12:00,604.78
7/12/1934 12:00,605.20
7/13/1934 12:00,605.28
7/14/1934 12:00,604.70
7/15/1934 12:00,604.12
7/16/1934 12:00,603.78
7/17/1934 12:00,603.68
7/18/1934 12:00,603.30
7/19/1934 12:00,603.60
7/20/1934 12:00,603.38
7/21/1934 12:00,603.78
7/22/1934 12:00,603.72
7/23/1934 12:00,603.30
7/24/1934 12:00,602.84
7/25/1934 12:00,602.82
7/26/1934 12:00,602.80
7/27/1934 12:00,602.70
7/28/1934 12:00,603.38
7/29/1934 12:00,603.88
7/30/1934 12:00,602.88
7/31/1934 12:00,602.82
8/1/1934 12:00,602.78
8/2/1934 12:00,603.06
8/3/1934 12:00,603.24
8/4/1934 12:00,603.40
8/5/1934 12:00,603.46
8/6/1934 12:00,603.46
8/7/1934 12:00,603.50
8/8/1934 12:00,603.66
8/9/1934 12:00,603.72
8/10/1934 12:00,603.70
8/11/1934 12:00,603.70
8/12/1934 12:00,603.62
8/13/1934 12:00,603.56
8/14/1934 12:00,603.50
8/15/1934 12:00,603.30
8/16/1934 12:00,603.24
8/17/1934 12:00,603.54
8/18/1934 12:00,603.80
8/19/1934 12:00,604.00
8/20/1934 12:00,604.06
8/21/1934 12:00,603.86
8/22/1934 12:00,603.90
8/23/1934 12:00,603.80
8/24/1934 12:00,603.76
8/25/1934 12:00,603.92
8/26/1934 12:00,604.06
8/27/1934 12:00,604.18
8/28/1934 12:00,604.30
8/29/1934 12:00,604.42
8/30/1934 12:00,604.42
8/31/1934 12:00,604.32
9/1/1934 12:00,604.22
9/2/1934 12:00,604.22
9/3/1934 12:00,604.10
9/4/1934 12:00,603.60
9/5/1934 12:00,603.02
9/6/1934 12:00,602.66
9/7/1934 12:00,602.66
9/8/1934 12:00,602.80
9/9/1934 12:00,602.90
9/10/1934 12:00,602.70
9/11/1934 12:00,602.66
9/12/1934 12:00,603.04
9/13/1934 12:00,602.97
9/14/1934 12:00,602.90
9/15/1934 12:00,602.76
9/16/1934 12:00,602.62
9/17/1934 12:00,602.64
9/18/1934 12:00,602.70
9/19/1934 12:00,602.66
9/20/1934 12:00,602.62
9/21/1934 12:00,602.68
9/22/1934 12:00,602.70
9/23/1934 12:00,602.72
9/24/1934 12:00,603.10
9/25/1934 12:00,603.20
9/26/1934 12:00,603.60
9/27/1934 12:00,603.70
9/28/1934 12:00,604.46
9/29/1934 12:00,605.06
9/30/1934 12:00,605.60
10/1/1934 12:00,606.50
10/2/1934 12:00,607.40
10/3/1934 12:00,608.20
10/4/1934 12:00,608.80
10/5/1934 12:00,609.16
10/6/1934 12:00,609.12
10/7/1934 12:00,608.90
10/8/1934 12:00,608.66
10/9/1934 12:00,608.32
10/10/1934 12:00,607.92
10/11/1934 12:00,607.52
10/12/1934 12:00,607.00
10/13/1934 12:00,606.52
10/14/1934 12:00,606.30
10/15/1934 12:00,606.10
10/16/1934 12:00,605.80
10/17/1934 12:00,605.60
10/18/1934 12:00,605.44
10/19/1934 12:00,605.00
10/20/1934 12:00,604.80
10/21/1934 12:00,604.80
10/22/1934 12:00,605.04
10/23/1934 12:00,605.30
10/24/1934 12:00,605.20
10/25/1934 12:00,605.50
10/26/1934 12:00,605.90
10/27/1934 12:00,606.50
10/28/1934 12:00,607.20
10/29/1934 12:00,607.72
10/30/1934 12:00,607.96
10/31/1934 12:00,608.32
11/1/1934 12:00,608.40
11/2/1934 12:00,608.30
11/3/1934 12:00,608.10
11/4/1934 12:00,607.96
11/5/1934 12:00,607.70
11/6/1934 12:00,607.50
11/7/1934 12:00,607.22
11/8/1934 12:00,607.00
11/9/1934 12:00,606.90
11/10/1934 12:00,607.00
11/11/1934 12:00,607.42
11/12/1934 12:00,607.34
11/13/1934 12:00,607.26
11/14/1934 12:00,607.06
11/15/1934 12:00,606.70
11/16/1934 12:00,606.50
11/17/1934 12:00,606.20
11/18/1934 12:00,606.04
11/19/1934 12:00,605.60
11/20/1934 12:00,605.50
11/21/1934 12:00,605.80
11/22/1934 12:00,605.90
11/23/1934 12:00,606.20
11/24/1934 12:00,606.70
11/25/1934 12:00,607.20
11/26/1934 12:00,607.80
11/27/1934 12:00,608.60
11/28/1934 12:00,609.30
11/29/1934 12:00,609.80
11/30/1934 12:00,610.10
12/1/1934 12:00,610.56
12/2/1934 12:00,610.90
12/3/1934 12:00,611.10
12/4/1934 12:00,611.00
12/5/1934 12:00,610.90
12/6/1934 12:00,610.80
12/7/1934 12:00,610.50
12/8/1934 12:00,609.80
12/9/1934 12:00,609.06
12/10/1934 12:00,607.90
12/11/1934 12:00,606.70
12/12/1934 12:00,605.76
12/13/1934 12:00,605.60
12/14/1934 12:00,605.50
12/15/1934 12:00,605.50
12/16/1934 12:00,605.60
12/17/1934 12:00,605.80
12/18/1934 12:00,606.02
12/19/1934 12:00,606.04
12/20/1934 12:00,606.14
12/21/1934 12:00,606.40
12/22/1934 12:00,606.40
12/23/1934 12:00,606.74
12/24/1934 12:00,607.10
12/25/1934 12:00,607.30
12/26/1934 12:00,606.80
12/27/1934 12:00,607.00
12/28/1934 12:00,607.38
12/29/1934 12:00,607.50
12/30/1934 12:00,607.70
12/31/1934 12:00,607.80
1/1/1935 12:00,607.66
1/2/1935 12:00,607.30
1/3/1935 12:00,607.50
1/4/1935 12:00,607.54
1/5/1935 12:00,607.70
1/6/1935 12:00,607.70
1/7/1935 12:00,607.58
1/8/1935 12:00,607.50
1/9/1935 12:00,607.54
1/10/1935 12:00,607.54
1/11/1935 12:00,607.44
1/12/1935 12:00,607.30
1/13/1935 12:00,607.20
1/14/1935 12:00,607.10
1/15/1935 12:00,607.00
1/16/1935 12:00,606.90
1/17/1935 12:00,606.90
1/18/1935 12:00,606.84
1/19/1935 12:00,606.74
1/20/1935 12:00,606.66
1/21/1935 12:00,606.60
1/22/1935 12:00,606.70
1/23/1935 12:00,606.50
1/24/1935 12:00,606.40
1/25/1935 12:00,606.30
1/26/1935 12:00,606.28
1/27/1935 12:00,606.28
1/28/1935 12:00,606.28
1/29/1935 12:00,606.22
1/30/1935 12:00,606.40
1/31/1935 12:00,606.40
2/1/1935 12:00,606.32
2/2/1935 12:00,606.34
2/3/1935 12:00,606.34
2/4/1935 12:00,606.40
2/5/1935 12:00,606.46
2/6/1935 12:00,606.46
2/7/1935 12:00,606.48
2/8/1935 12:00,606.50
2/9/1935 12:00,606.52
2/10/1935 12:00,606.52
2/11/1935 12:00,606.60
2/12/1935 12:00,606.62
2/13/1935 12:00,606.68
2/14/1935 12:00,606.74
2/15/1935 12:00,606.96
2/16/1935 12:00,607.10
2/17/1935 12:00,607.22
2/18/1935 12:00,607.34
2/19/1935 12:00,607.34
2/20/1935 12:00,607.44
2/21/1935 12:00,607.54
2/22/1935 12:00,607.56
2/23/1935 12:00,607.60
2/24/1935 12:00,607.64
2/25/1935 12:00,607.70
2/26/1935 12:00,607.70
2/27/1935 12:00,607.50
2/28/1935 12:00,607.30
3/1/1935 12:00,607.30
3/2/1935 12:00,607.32
3/3/1935 12:00,607.46
3/4/1935 12:00,607.66
3/5/1935 12:00,609.20
3/6/1935 12:00,609.80
3/7/1935 12:00,610.10
3/8/1935 12:00,610.20
3/9/1935 12:00,610.20
3/10/1935 12:00,610.10
3/11/1935 12:00,609.94
3/12/1935 12:00,609.90
3/13/1935 12:00,609.94
3/14/1935 12:00,609.90
3/15/1935 12:00,609.90
3/16/1935 12:00,609.50
3/17/1935 12:00,609.53
3/18/1935 12:00,609.76
3/19/1935 12:00,610.44
3/20/1935 12:00,611.04
3/21/1935 12:00,610.94
3/22/1935 12:00,611.10
3/23/1935 12:00,611.10
3/24/1935 12:00,611.30
3/25/1935 12:00,611.60
3/26/1935 12:00,611.90
3/27/1935 12:00,612.56
3/28/1935 12:00,613.60
3/29/1935 12:00,614.40
3/30/1935 12:00,615.54
3/31/1935 12:00,616.40
4/1/1935 12:00,616.95
4/2/1935 12:00,617.00
4/3/1935 12:00,616.88
4/4/1935 12:00,616.52
4/5/1935 12:00,616.30
4/6/1935 12:00,615.80
4/7/1935 12:00,615.00
4/8/1935 12:00,614.40
4/9/1935 12:00,613.72
4/10/1935 12:00,613.28
4/11/1935 12:00,612.80
4/12/1935 12:00,612.50
4/13/1935 12:00,612.12
4/14/1935 12:00,611.80
4/15/1935 12:00,611.50
4/16/1935 12:00,611.22
4/17/1935 12:00,611.10
4/18/1935 12:00,611.10
4/19/1935 12:00,611.08
4/20/1935 12:00,611.00
4/21/1935 12:00,610.80
4/22/1935 12:00,610.50
4/23/1935 12:00,610.12
4/24/1935 12:00,609.92
4/25/1935 12:00,609.62
4/26/1935 12:00,609.43
4/27/1935 12:00,609.31
4/28/1935 12:00,609.21
4/29/1935 12:00,609.25
4/30/1935 12:00,609.03
5/1/1935 12:00,608.93
5/2/1935 12:00,609.13
5/3/1935 12:00,609.23
5/4/1935 12:00,609.35
5/5/1935 12:00,609.51
5/6/1935 12:00,609.59
5/7/1935 12:00,609.45
5/8/1935 12:00,609.49
5/9/1935 12:00,609.45
5/10/1935 12:00,609.37
5/11/1935 12:00,609.33
5/12/1935 12:00,609.23
5/13/1935 12:00,609.23
5/14/1935 12:00,609.23
5/15/1935 12:00,609.39
5/16/1935 12:00,609.45
5/17/1935 12:00,609.61
5/18/1935 12:00,609.70
5/19/1935 12:00,609.82
5/20/1935 12:00,610.02
5/21/1935 12:00,609.98
5/22/1935 12:00,609.96
5/23/1935 12:00,609.82
5/24/1935 12:00,609.78
5/25/1935 12:00,609.62
5/26/1935 12:00,609.45
5/27/1935 12:00,609.33
5/28/1935 12:00,609.15
5/29/1935 12:00,609.13
5/30/1935 12:00,609.15
5/31/1935 12:00,608.97
6/1/1935 12:00,608.63
6/2/1935 12:00,608.28
6/3/1935 12:00,607.88
6/4/1935 12:00,607.63
6/5/1935 12:00,607.35
6/6/1935 12:00,607.17
6/7/1935 12:00,606.97
6/8/1935 12:00,606.85
6/9/1935 12:00,606.76
6/10/1935 12:00,606.56
6/11/1935 12:00,606.30
6/12/1935 12:00,606.17
6/13/1935 12:00,606.05
6/14/1935 12:00,605.89
6/15/1935 12:00,605.71
6/16/1935 12:00,605.38
6/17/1935 12:00,605.22
6/18/1935 12:00,605.32
6/19/1935 12:00,605.97
6/20/1935 12:00,606.76
6/21/1935 12:00,607.45
6/22/1935 12:00,608.08
6/23/1935 12:00,608.42
6/24/1935 12:00,608.93
6/25/1935 12:00,609.57
6/26/1935 12:00,610.16
6/27/1935 12:00,610.58
6/28/1935 12:00,610.94
6/29/1935 12:00,611.20
6/30/1935 12:00,611.30
7/1/1935 12:00,611.16
7/2/1935 12:00,610.90
7/3/1935 12:00,610.64
7/4/1935 12:00,610.42
7/5/1935 12:00,610.22
7/6/1935 12:00,610.12
7/7/1935 12:00,610.36
7/8/1935 12:00,610.46
7/9/1935 12:00,610.68
7/10/1935 12:00,610.72
7/11/1935 12:00,610.82
7/12/1935 12:00,611.00
7/13/1935 12:00,611.16
7/14/1935 12:00,611.34
7/15/1935 12:00,611.20
7/16/1935 12:00,611.10
7/17/1935 12:00,610.92
7/18/1935 12:00,610.90
7/19/1935 12:00,610.80
7/20/1935 12:00,610.52
7/21/1935 12:00,610.16
7/22/1935 12:00,609.80
7/23/1935 12:00,609.23
7/24/1935 12:00,608.63
7/25/1935 12:00,607.94
7/26/1935 12:00,607.64
7/27/1935 12:00,607.45
7/28/1935 12:00,607.39
7/29/1935 12:00,607.23
7/30/1935 12:00,607.27
7/31/1935 12:00,607.43
8/1/1935 12:00,607.74
8/2/1935 12:00,607.94
8/3/1935 12:00,608.40
8/4/1935 12:00,609.13
8/5/1935 12:00,609.45
8/6/1935 12:00,609.76
8/7/1935 12:00,609.72
8/8/1935 12:00,610.10
8/9/1935 12:00,610.42
8/10/1935 12:00,610.80
8/11/1935 12:00,610.78
8/12/1935 12:00,610.74
8/13/1935 12:00,610.60
8/14/1935 12:00,610.58
8/15/1935 12:00,610.22
8/16/1935 12:00,609.76
8/17/1935 12:00,608.99
8/18/1935 12:00,608.26
8/19/1935 12:00,607.74
8/20/1935 12:00,607.61
8/21/1935 12:00,607.57
8/22/1935 12:00,607.43
8/23/1935 12:00,607.33
8/24/1935 12:00,607.41
8/25/1935 12:00,607.66
8/26/1935 12:00,607.84
8/27/1935 12:00,607.80
8/28/1935 12:00,607.74
8/29/1935 12:00,607.74
8/30/1935 12:00,607.53
8/31/1935 12:00,607.33
9/1/1935 12:00,607.15
9/2/1935 12:00,606.95
9/3/1935 12:00,606.76
9/4/1935 12:00,606.76
9/5/1935 12:00,606.76
9/6/1935 12:00,606.64
9/7/1935 12:00,606.36
9/8/1935 12:00,606.07
9/9/1935 12:00,605.67
9/10/1935 12:00,605.58
9/11/1935 12:00,605.87
9/12/1935 12:00,605.71
9/13/1935 12:00,605.67
9/14/1935 12:00,605.54
9/15/1935 12:00,605.44
9/16/1935 12:00,605.22
9/17/1935 12:00,605.36
9/18/1935 12:00,605.56
9/19/1935 12:00,605.34
9/20/1935 12:00,605.09
9/21/1935 12:00,605.15
9/22/1935 12:00,605.56
9/23/1935 12:00,606.17
9/24/1935 12:00,606.60
9/25/1935 12:00,606.87
9/26/1935 12:00,607.05
9/27/1935 12:00,606.85
9/28/1935 12:00,606.66
9/29/1935 12:00,606.54
9/30/1935 12:00,606.07
10/1/1935 12:00,605.67
10/2/1935 12:00,605.58
10/3/1935 12:00,605.38
10/4/1935 12:00,605.11
10/5/1935 12:00,604.79
10/6/1935 12:00,604.59
10/7/1935 12:00,604.91
10/8/1935 12:00,604.91
10/9/1935 12:00,605.15
10/10/1935 12:00,604.95
10/11/1935 12:00,604.69
10/12/1935 12:00,604.55
10/13/1935 12:00,604.44
10/14/1935 12:00,604.69
10/15/1935 12:00,604.68
10/16/1935 12:00,604.56
10/17/1935 12:00,604.64
10/18/1935 12:00,604.81
10/19/1935 12:00,604.60
10/20/1935 12:00,604.50
10/21/1935 12:00,604.69
10/22/1935 12:00,604.75
10/23/1935 12:00,604.79
10/24/1935 12:00,604.89
10/25/1935 12:00,605.17
10/26/1935 12:00,605.26
10/27/1935 12:00,605.26
10/28/1935 12:00,605.28
10/29/1935 12:00,605.28
10/30/1935 12:00,604.93
10/31/1935 12:00,604.99
11/1/1935 12:00,605.36
11/2/1935 12:00,605.64
11/3/1935 12:00,605.77
11/4/1935 12:00,606.30
11/5/1935 12:00,606.97
11/6/1935 12:00,607.45
11/7/1935 12:00,607.96
11/8/1935 12:00,608.28
11/9/1935 12:00,608.42
11/10/1935 12:00,608.36
11/11/1935 12:00,608.16
11/12/1935 12:00,607.76
11/13/1935 12:00,607.43
11/14/1935 12:00,607.27
11/15/1935 12:00,607.03
11/16/1935 12:00,606.66
11/17/1935 12:00,606.62
11/18/1935 12:00,606.66
11/19/1935 12:00,606.36
11/20/1935 12:00,606.32
11/21/1935 12:00,606.11
11/22/1935 12:00,605.85
11/23/1935 12:00,605.69
11/24/1935 12:00,605.60
11/25/1935 12:00,605.58
11/26/1935 12:00,605.38
11/27/1935 12:00,605.13
11/28/1935 12:00,605.09
11/29/1935 12:00,605.44
11/30/1935 12:00,605.54
12/1/1935 12:00,605.77
12/2/1935 12:00,605.48
12/3/1935 12:00,604.75
12/4/1935 12:00,604.30
12/5/1935 12:00,604.28
12/6/1935 12:00,604.02
12/7/1935 12:00,604.08
12/8/1935 12:00,604.63
12/9/1935 12:00,605.17
12/10/1935 12:00,605.54
12/11/1935 12:00,605.79
12/12/1935 12:00,606.09
12/13/1935 12:00,605.97
12/14/1935 12:00,605.54
12/15/1935 12:00,605.07
12/16/1935 12:00,605.03
12/17/1935 12:00,605.26
12/18/1935 12:00,605.67
12/19/1935 12:00,605.93
12/20/1935 12:00,606.25
12/21/1935 12:00,606.17
12/22/1935 12:00,605.41